This is the latest recevied weather packets stored in our database for station/object IU5JAE-13. If no packets are shown the sender has not sent any weather packets the latest 10 day(s).
| Time | Temp. | Humidity | Pressure | Rain* | Wind** | Luminosity | Snow |
|---|---|---|---|---|---|---|---|
| 1777986924 | 15.56° C | 97% | 1012.7 hPa | 0 mm | - | 376 W/m² | - |
| 1777986321 | 15° C | 98% | 1012.8 hPa | 0.51 mm | - | 154 W/m² | - |
| 1777985719 | 15° C | 99% | 1012.9 hPa | 2.29 mm | - | 303 W/m² | - |
| 1777985116 | 15° C | 99% | 1012.9 hPa | 2.29 mm | - | 123 W/m² | - |
| 1777984534 | 14.44° C | 99% | 1012.8 hPa | 2.29 mm | - | 166 W/m² | - |
| 1777983932 | 14.44° C | 99% | 1012.9 hPa | 2.29 mm | - | 126 W/m² | - |
| 1777983329 | 14.44° C | 99% | 1013 hPa | 2.29 mm | - | 70 W/m² | - |
| 1777982727 | 14.44° C | 99% | 1012.9 hPa | 2.03 mm | - | 86 W/m² | - |
| 1777982124 | 14.44° C | 99% | 1012.9 hPa | 0.25 mm | - | 141 W/m² | - |
| 1777981522 | 14.44° C | 99% | 1012.9 hPa | 0.25 mm | - | 202 W/m² | - |
| 1777980920 | 13.89° C | 99% | 1012.8 hPa | 0.51 mm | - | 227 W/m² | - |
| 1777980317 | 13.89° C | 99% | 1012.8 hPa | 0.51 mm | - | 74 W/m² | - |
| 1777979735 | 13.33° C | 99% | 1012.8 hPa | 0.51 mm | - | 128 W/m² | - |
| 1777979132 | 13.33° C | 99% | 1013 hPa | 0.76 mm | - | 63 W/m² | - |
| 1777978530 | 13.33° C | 99% | 1012.8 hPa | 1.02 mm | - | 56 W/m² | - |
| 1777977928 | 13.33° C | 99% | 1012.9 hPa | 1.78 mm | - | 55 W/m² | - |
| 1777977325 | 13.33° C | 99% | 1012.8 hPa | 1.52 mm | - | 65 W/m² | - |
| 1777976723 | 12.78° C | 99% | 1012.8 hPa | 1.52 mm | - | 108 W/m² | - |
| 1777976120 | 12.78° C | 99% | 1012.9 hPa | 3.3 mm | - | 51 W/m² | - |
| 1777975518 | 12.78° C | 99% | 1012.9 hPa | 6.1 mm | - | 50 W/m² | - |
| 1777974916 | 12.78° C | 99% | 1012.9 hPa | 9.4 mm | - | 33 W/m² | - |
| 1777974333 | 12.22° C | 99% | 1012.9 hPa | 9.65 mm | - | 13 W/m² | - |
| 1777973731 | 12.22° C | 99% | 1012.8 hPa | 12.95 mm | - | 16 W/m² | - |
| 1777973128 | 12.22° C | 99% | 1012.9 hPa | 14.73 mm | - | 16 W/m² | - |
| 1777972526 | 12.22° C | 99% | 1012.6 hPa | 13.72 mm | - | 56 W/m² | - |
* Rain latest hour (hover to see other rain measurements)
** Current wind speed in m/s (hover to see current wind gust speed)